Overview Statistics Trail Chart Weather Telemetry Raw packets
 

This is the latest recevied weather packets stored in our database for station/object EB1BWO-11. If no packets are shown the sender has not sent any weather packets the latest 10 day(s).

<< 13 14 15 16 17 18 19 >>
Time Temp. Humidity Pressure Rain* Wind** Luminosity Snow
1788294155 20.56° C 60% 1025.2 hPa - - - -
1788293255 20.56° C 60% 1025 hPa - - - -
1788292355 21.11° C 60% 1025.1 hPa - - - -
1788291455 21.67° C 60% 1024.8 hPa - - - -
1788290555 21.67° C 60% 1024.7 hPa - - - -
1788289655 21.67° C 60% 1024.4 hPa - - - -
1788288755 21.67° C 61% 1024.4 hPa - - - -
1788287854 21.67° C 61% 1024.3 hPa - - - -
1788286954 22.22° C 61% 1024.3 hPa - - - -
1788286054 22.78° C 60% 1024.1 hPa - - - -
1788285154 23.33° C 60% 1024 hPa - - - -
1788284254 23.89° C 58% 1023.9 hPa - - - -
1788283354 24.44° C 57% 1023.4 hPa - - - -
1788282454 25° C 56% 1023.2 hPa - - - -
1788281553 25° C 56% 1022.8 hPa - - - -
1788280653 25° C 55% 1022.5 hPa - - - -
1788279753 26.11° C 54% 1022.6 hPa - - - -
1788278853 26.67° C 53% 1022.6 hPa - - - -
1788277953 26.67° C 54% 1022.8 hPa - - - -
1788277053 26.67° C 53% 1022.7 hPa - - - -
1788276153 27.78° C 50% 1022.8 hPa - - - -
1788275252 27.78° C 54% 1022.8 hPa - - - -
1788274352 28.89° C 51% 1022.8 hPa - - - -
1788273452 28.89° C 51% 1022.8 hPa - - - -
1788272552 26.11° C 55% 1023 hPa - - - -

* Rain since midnight (hover to see other rain measurements)
** Current wind speed in m/s (hover to see current wind gust speed)